Content
SEND FEEDBACK

Daily
Averages
Monthly
Summary
United States of America

GLEN CANYON CITY, UTAH


Home > North America > United States > Utah
Elevation: 4133 feet     Latitude: 37 05N     Longitude: 111 40W

WEATHER
 
SELECT A DAY
Number of Records: 194,800;   Date Range: 1/1/95 - 8/28/14
 
SHARE

PRINT THIS DATA

[ ← Previous Day ]
WEATHER ALMANAC - MARCH 8, 2013
[ Next Day → ]
[ °C ]   °F
Weather ElementAverageHighLow
Temperature42 °F54 °F (1:53 pm)33.8 °F (8:49 pm)
Dewpoint33.6 °F39.2 °F (2:58 pm)21 °F (1:53 am)
Humidity75.5 %93 % (7:18 pm)29 % (1:53 am)
Barometer29.71 in29.77 in (10:27 pm)29.58 in (1:53 pm)
Wind Speed7.1 mph20.7 mph (12:53 pm)
Wind Gust31.1 mph (2:53 pm)
Weather ElementAverage
Visibility5.5 mi
Wind DirectionSSW (190.3 °)

Weather ElementTotal
Precipitation1.70 in
Heating Degree Days21.1 (Base 65)
Averaged from 40 records on March 8, 2013
WEATHER CONDITIONS BREAKOUT
WIND DIRECTION BREAKOUT
WEATHER BY HOUR - MARCH 8, 2013
[ °C ]   °F
Local TimeTemperatureDewpointHumidityBarometerVisibilityWind DirectionWind SpeedGust SpeedPrecipitationEventsConditions
1:53 AM53.1 °F21.0 °F29 %29.73 in10.0 miSSW (200°)3.5 mphPartly Cloudy
2:53 AM51.1 °F21.9 °F32 %29.71 in10.0 miSSE (160°)6.9 mphScattered Clouds
3:53 AM52.0 °F21.0 °F30 %29.70 in10.0 miCalmOvercast
4:53 AM50.0 °F28.9 °F44 %29.73 in10.0 miNW (310°)10.4 mph20.7 mphOvercast
5:53 AM48.0 °F35.1 °F61 %29.75 in10.0 miNNW (330°)4.6 mph0.00 inRainLight Rain
6:53 AM46.9 °F36.0 °F66 %29.74 in10.0 miNorth (350°)5.8 mph0.00 inRainLight Rain
7:53 AM46.0 °F37.9 °F73 %29.76 in10.0 miSE (140°)4.6 mph0.01 inRainLight Rain
8:53 AM46.9 °F36.0 °F66 %29.74 in10.0 miSSE (160°)8.1 mph0.00 inOvercast
9:53 AM48.0 °F36.0 °F63 %29.73 in10.0 miSE (140°)5.8 mphOvercast
10:53 AM51.1 °F37.0 °F59 %29.70 in10.0 miSE (140°)11.5 mphOvercast
11:53 AM53.1 °F36.0 °F52 %29.67 in10.0 miSSE (160°)13.8 mph21.9 mphMostly Cloudy
12:53 PM53.1 °F35.1 °F50 %29.63 in10.0 miSouth (170°)20.7 mph28.8 mphScattered Clouds
1:53 PM54.0 °F35.1 °F49 %29.58 in10.0 miSSE (160°)20.7 mphClear
2:53 PM46.0 °F36.0 °F68 %29.61 in8.0 miSW (230°)15.0 mph31.1 mph0.00 inRainLight Rain
2:58 PM44.6 °F39.2 °F81 %29.69 in2.5 miSW (220°)16.1 mph29.9 mph0.01 inRainRain
3:13 PM44.6 °F39.2 °F81 %29.69 in4.0 miWSW (240°)10.4 mph17.3 mph0.05 inRainRain
3:25 PM44.6 °F39.2 °F81 %29.69 in6.0 miSSW (210°)6.9 mph0.06 inRainLight Rain
3:53 PM46.0 °F37.9 °F73 %29.60 in10.0 miCalm0.07 inMostly Cloudy
4:53 PM46.9 °F37.0 °F68 %29.59 in10.0 miEast (90°)4.6 mphScattered Clouds
5:53 PM45.0 °F39.0 °F80 %29.58 in10.0 miNE (40°)8.1 mphMostly Cloudy
6:53 PM42.1 °F36.0 °F79 %29.63 in5.0 miWest (260°)8.1 mph0.02 inRainRain
7:09 PM41.0 °F37.4 °F87 %29.69 in2.5 miSW (220°)5.8 mph0.03 inRainRain
7:18 PM39.2 °F37.4 °F93 %29.69 in3.0 miSouth (190°)6.9 mph0.05 inRainRain
7:53 PM41.0 °F36.0 °F82 %29.66 in4.0 miSSW (210°)6.9 mph0.14 inRainRain
8:29 PM37.4 °F33.8 °F87 %29.73 in2.5 miWSW (240°)8.1 mph17.3 mph0.11 inRainHeavy Rain
8:42 PM35.6 °F32.0 °F87 %29.74 in1.2 miWSW (240°)6.9 mph0.16 inSnowLight Snow
8:49 PM33.8 °F32.0 °F93 %29.74 in0.8 miWSW (250°)5.8 mph0.19 inSnowLight Snow
8:53 PM34.0 °F32.0 °F92 %29.72 in0.8 miCalm0.20 inSnowLight Snow
9:07 PM33.8 °F32.0 °F93 %29.75 in1.0 miCalm0.04 inSnowLight Snow
9:20 PM33.8 °F32.0 °F93 %29.75 in2.5 miCalm0.06 inSnowLight Snow
9:36 PM33.8 °F32.0 °F93 %29.76 in1.2 miVariable4.6 mph20.7 mph0.08 inSnowLight Snow
9:45 PM33.8 °F32.0 °F93 %29.76 in0.8 miNNE (20°)9.2 mph0.10 inSnowLight Snow
9:53 PM34.0 °F32.0 °F92 %29.73 in0.8 miNW (320°)5.8 mph0.12 inSnowLight Snow
10:27 PM33.8 °F32.0 °F93 %29.77 in1.2 miWNW (300°)6.9 mph0.06 inSnowLight Snow
10:38 PM33.8 °F32.0 °F93 %29.77 in1.8 miNW (310°)8.1 mphSnowLight Snow
10:53 PM34.0 °F32.0 °F92 %29.73 in1.8 miNW (310°)6.9 mph0.09 inSnowLight Snow
11:01 PM33.8 °F32.0 °F93 %29.77 in1.8 miNW (320°)5.8 mph0.00 inSnowLight Snow
11:19 PM33.8 °F32.0 °F93 %29.76 in3.0 miNNW (330°)4.6 mph0.01 inSnowLight Snow
11:44 PM33.8 °F32.0 °F93 %29.77 in2.0 miNW (310°)3.5 mph0.02 inSnowLight Snow
11:53 PM34.0 °F32.0 °F92 %29.72 in1.5 miNNW (330°)3.5 mph0.02 inSnowLight Snow
Hourly data recorded from KPGA, located miles away from Glen Canyon City, Utah







STORIES FROM OUR PARTNERS